FW7008 Weather Reports


time (UTC)temp
C
wind
direction
speed
KPH
gust
KPH
rain 1hr
cm
rain 24hr
cm
rain mn
cm
humidity
%
barometer
mb
20260507084424 15 271 0.0 0.0 0.00 0.00 0.00 96 1017.6
20260507083921 15 257 0.0 0.0 0.00 0.00 0.00 96 1017.6
20260507083417 15 252 0.0 0.0 0.00 0.00 0.00 96 1017.6
20260507082914 15 257 0.0 0.0 0.00 0.00 0.00 95 1017.6
20260507082409 15 255 0.0 0.0 0.00 0.00 0.00 95 1017.9
20260507081907 15 254 0.0 0.0 0.00 0.00 0.00 95 1017.9
20260507081403 15 252 0.0 0.0 0.00 0.00 0.00 94 1017.9
20260507080859 15 195 0.0 0.0 0.00 0.00 0.00 94 1017.9
20260507080356 15 233 0.0 0.0 0.00 0.00 0.00 94 1017.9
20260507075851 15 212 0.0 0.0 0.00 0.00 0.00 93 1017.6
20260507075347 15 244 0.0 0.0 0.00 0.00 0.00 93 1017.9
20260507074844 15 246 0.0 0.0 0.00 0.00 0.00 93 1017.9
20260507074341 15 208 0.0 0.0 0.00 0.00 0.00 93 1017.9
20260507073838 15 234 0.0 0.0 0.00 0.00 0.00 93 1017.9
20260507073335 15 177 0.0 0.0 0.00 0.00 0.00 93 1018.3
20260507072832 15 190 0.0 0.0 0.00 0.00 0.00 93 1018.3
20260507072330 15 247 0.0 0.0 0.00 0.00 0.00 94 1018.3
20260507071827 15 205 0.0 0.0 0.00 0.00 0.00 95 1018.3
20260507071324 15 216 0.0 0.0 0.00 0.00 0.00 95 1018.3
20260507070820 15 255 0.0 0.0 0.00 0.00 0.00 96 1018.3
20260507070318 15 236 0.0 0.0 0.00 0.00 0.00 96 1017.9
20260507065814 15 236 0.0 0.0 0.00 0.00 0.00 96 1018.3
20260507065311 15 248 0.0 0.0 0.00 0.00 0.00 96 1017.9
20260507064808 15 243 0.0 0.0 0.00 0.00 0.00 96 1017.9
20260507064307 15 267 0.0 0.0 0.00 0.00 0.00 96 1018.3
20260507063804 15 247 0.0 0.0 0.00 0.00 0.00 96 1018.3
20260507063301 15 242 0.0 0.0 0.00 0.00 0.00 96 1018.3
20260507062757 15 231 0.0 0.0 0.00 0.00 0.00 96 1018.3
20260507062255 15 240 0.0 0.0 0.00 0.00 0.00 96 1018.3
20260507061753 15 263 0.0 0.0 0.00 0.00 0.00 96 1018.3
20260507061250 15 258 0.0 0.0 0.00 0.00 0.00 96 1018.3
20260507060748 15 234 0.0 0.0 0.00 0.00 0.00 96 1018.3
20260507060244 15 260 0.0 0.0 0.00 0.00 0.00 96 1018.3
20260507055741 15 232 0.0 0.0 0.00 0.00 0.00 96 1018.3
20260507055236 15 250 0.0 0.0 0.00 0.00 0.00 95 1018.3
20260507054733 15 216 0.0 0.0 0.00 0.00 0.00 95 1018.3
20260507054230 15 253 0.0 0.0 0.00 0.00 0.00 95 1018.3
20260507053727 15 221 8.0 12.9 0.00 0.00 0.00 95 1018.3
20260507053225 15 244 0.0 0.0 0.00 0.00 0.00 94 1018.3
20260507052724 15 263 0.0 1.6 0.00 0.00 0.00 94 1018.3
20260507052219 15 236 0.0 0.0 0.00 0.00 0.00 93 1018.3
20260507051718 15 213 0.0 0.0 0.00 0.00 0.00 93 1018.3
20260507051214 15 184 0.0 0.0 0.00 0.00 0.00 93 1018.3
20260507050711 15 196 0.0 0.0 0.00 0.00 0.00 92 1018.3
20260507050208 15 238 0.0 0.0 0.00 0.00 0.00 92 1018.3
20260507045705 15 243 0.0 0.0 0.00 0.00 0.00 93 1018.3
20260507045201 15 138 0.0 0.0 0.00 0.00 0.00 93 1017.9
20260507044658 15 149 0.0 0.0 0.00 0.00 0.00 93 1018.3
20260507044154 15 229 0.0 0.0 0.00 0.00 0.00 93 1018.3
20260507043651 15 187 0.0 0.0 0.00 0.00 0.00 93 1018.3
20260507043148 15 160 0.0 0.0 0.00 0.00 0.00 93 1018.3
20260507042644 16 248 0.0 0.0 0.00 0.00 0.00 93 1018.3
20260507042139 16 223 0.0 0.0 0.00 0.00 0.00 93 1018.3
20260507041636 16 233 0.0 0.0 0.00 0.00 0.00 93 1017.9
20260507041127 16 178 0.0 0.0 0.00 0.00 0.00 93 1018.3
20260507040624 16 160 0.0 0.0 0.00 0.00 0.00 92 1017.9
20260507040121 16 272 0.0 0.0 0.00 0.00 0.00 92 1017.9
20260507035616 16 261 0.0 0.0 0.00 0.00 0.00 92 1017.9
20260507035113 16 233 0.0 0.0 0.00 0.00 0.00 92 1017.6
20260507034610 16 235 0.0 0.0 0.00 0.00 0.00 91 1017.6
20260507034107 16 202 0.0 0.0 0.00 0.00 0.00 92 1017.6
20260507033606 16 246 8.0 9.7 0.00 0.00 0.00 92 1017.6
20260507033102 16 264 11.3 12.9 0.00 0.00 0.00 91 1017.6
20260507032600 16 218 0.0 0.0 0.00 0.00 0.00 91 1017.6
20260507032056 16 253 0.0 0.0 0.00 0.00 0.00 92 1017.6
20260507031552 16 223 0.0 1.6 0.00 0.00 0.00 92 1017.6
20260507031049 16 242 0.0 0.0 0.00 0.00 0.00 92 1017.3
20260507030546 16 179 0.0 0.0 0.00 0.00 0.00 92 1017.3
20260507030044 16 209 0.0 0.0 0.00 0.00 0.00 91 1017.3
20260507025541 16 215 0.0 0.0 0.00 0.00 0.00 91 1017.3
20260507025038 16 218 8.0 11.3 0.00 0.00 0.00 91 1017.3
20260507024536 16 230 6.4 11.3 0.00 0.00 0.00 90 1017.3
20260507024032 16 269 0.0 0.0 0.00 0.00 0.00 89 1017.3
20260507023528 16 234 8.0 11.3 0.00 0.00 0.00 89 1016.9
20260507023026 16 252 11.3 16.1 0.00 0.00 0.00 87 1017.3
20260507022522 17 234 9.7 14.5 0.00 0.00 0.00 86 1017.3
20260507022012 17 231 0.0 0.0 0.00 0.00 0.00 85 1016.9
20260507021508 17 240 0.0 0.0 0.00 0.00 0.00 84 1016.9
20260507021005 17 258 0.0 0.0 0.00 0.00 0.00 85 1016.9
20260507020503 17 273 8.0 11.3 0.00 0.00 0.00 86 1016.9
20260507015959 17 252 0.0 0.0 0.00 0.00 0.00 87 1016.9
20260507015458 17 255 11.3 12.9 0.00 0.00 0.00 86 1016.9
20260507014955 17 244 6.4 9.7 0.00 0.00 0.00 85 1016.9
20260507014451 17 216 11.3 14.5 0.00 0.00 0.00 85 1016.9
20260507013947 17 217 3.2 8.0 0.00 0.00 0.00 85 1016.6
20260507013443 18 175 0.0 1.6 0.00 0.00 0.00 83 1016.6
20260507012941 17 259 8.0 12.9 0.00 0.00 0.00 84 1016.9
20260507012437 18 265 11.3 17.7 0.00 0.00 0.00 84 1016.6
20260507011934 18 244 9.7 14.5 0.00 0.00 0.00 82 1016.6
20260507011432 18 227 12.9 16.1 0.00 0.00 0.00 82 1016.6
20260507010931 17 260 11.3 14.5 0.00 0.00 0.00 82 1016.6
20260507010427 18 232 8.0 11.3 0.00 0.00 0.00 83 1016.6
20260507005924 18 227 8.0 9.7 0.00 0.00 0.00 83 1016.6
20260507005421 18 261 14.5 16.1 0.00 0.00 0.00 84 1016.6
20260507004918 18 236 11.3 12.9 0.00 0.00 0.00 83 1016.6
20260507004414 18 229 11.3 12.9 0.00 0.00 0.00 82 1016.6
20260507003912 18 184 6.4 11.3 0.00 0.00 0.00 83 1016.6
20260507003407 18 238 14.5 20.9 0.00 0.00 0.00 82 1016.6
20260507002903 18 238 19.3 22.5 0.00 0.00 0.00 82 1016.6
20260507002359 18 267 11.3 16.1 0.00 0.00 0.00 82 1016.6
20260507001856 18 303 3.2 8.0 0.00 0.00 0.00 82 1016.6
20260507001353 18 220 11.3 16.1 0.00 0.00 0.00 82 1016.6
20260507000850 18 236 1.6 3.2 0.00 0.00 0.00 80 1016.9
20260507000345 18 221 9.7 16.1 0.00 0.00 0.00 80 1016.6
20260506235841 18 237 14.5 24.1 0.00 0.00 0.00 80 1016.6
20260506235338 18 243 9.7 12.9 0.00 0.00 0.00 81 1016.9
20260506234834 18 234 14.5 22.5 0.00 0.00 0.00 82 1016.9
20260506234332 18 199 16.1 17.7 0.00 0.00 0.00 81 1016.9
20260506233830 19 162 9.7 14.5 0.00 0.00 0.00 79 1016.6
20260506233325 19 269 17.7 20.9 0.00 0.00 0.00 76 1016.9
20260506232822 20 261 19.3 24.1 0.00 0.00 0.00 74 1016.6
20260506232318 20 239 8.0 11.3 0.00 0.00 0.00 74 1016.9
20260506231815 20 251 11.3 14.5 0.00 0.00 0.00 74 1016.6
20260506231313 19 224 0.0 0.0 0.00 0.00 0.00 74 1016.9
20260506230810 20 237 16.1 20.9 0.00 0.00 0.00 71 1016.6
20260506230306 20 175 11.3 14.5 0.00 0.00 0.00 71 1016.9
20260506225803 20 167 8.0 12.9 0.00 0.00 0.00 73 1016.9
20260506225300 20 211 12.9 20.9 0.00 0.00 0.00 73 1017.3
20260506224756 20 242 16.1 20.9 0.00 0.00 0.00 74 1016.9
20260506224254 20 220 4.8 8.0 0.00 0.00 0.00 74 1017.3
20260506223750 20 246 14.5 20.9 0.00 0.00 0.00 72 1017.3
20260506223246 20 240 8.0 12.9 0.00 0.00 0.00 73 1017.3
20260506222743 20 195 12.9 16.1 0.00 0.00 0.00 74 1017.3
20260506222238 20 274 20.9 25.7 0.00 0.00 0.00 74 1017.3
20260506221731 20 246 19.3 25.7 0.00 0.00 0.00 75 1017.3
20260506221228 20 242 17.7 20.9 0.00 0.00 0.00 74 1017.3
20260506220725 20 237 12.9 16.1 0.00 0.00 0.00 74 1017.6
20260506220220 20 250 14.5 17.7 0.00 0.00 0.00 74 1017.3
20260506215717 20 283 17.7 22.5 0.00 0.00 0.00 73 1017.6
20260506215212 20 178 9.7 12.9 0.00 0.00 0.00 71 1017.3
20260506214709 20 273 11.3 12.9 0.00 0.00 0.00 73 1017.6
20260506214207 20 252 16.1 17.7 0.00 0.00 0.00 75 1017.9
20260506213705 20 255 17.7 20.9 0.00 0.00 0.00 72 1017.6
20260506213202 20 242 16.1 20.9 0.00 0.00 0.00 73 1017.9
20260506212659 20 269 8.0 14.5 0.00 0.00 0.00 72 1017.6
20260506212154 20 268 11.3 17.7 0.00 0.00 0.00 74 1017.6
20260506211650 20 230 11.3 12.9 0.00 0.00 0.00 76 1017.9
20260506211147 20 267 14.5 17.7 0.00 0.00 0.00 76 1017.6
20260506210644 20 236 16.1 17.7 0.00 0.00 0.00 73 1017.9
20260506210140 20 253 19.3 22.5 0.00 0.00 0.00 76 1017.9
20260506205638 20 248 17.7 20.9 0.00 0.00 0.00 74 1017.9
20260506205132 20 241 19.3 22.5 0.00 0.00 0.00 74 1017.9
20260506204630 20 307 16.1 20.9 0.00 0.00 0.00 71 1017.9
20260506204127 21 237 14.5 20.9 0.00 0.00 0.00 69 1018.3
20260506203625 21 294 17.7 20.9 0.00 0.00 0.00 70 1018.3
20260506203122 21 260 14.5 17.7 0.00 0.00 0.00 67 1017.9
20260506202620 21 157 0.0 0.0 0.00 0.00 0.00 65 1018.3
20260506202115 21 234 17.7 20.9 0.00 0.00 0.00 66 1018.3
20260506201613 21 196 11.3 14.5 0.00 0.00 0.00 64 1018.3
20260506201109 21 216 4.8 11.3 0.00 0.00 0.00 64 1018.3
20260506200606 21 215 0.0 0.0 0.00 0.00 0.00 68 1018.3
20260506195559 21 148 0.0 0.0 0.00 0.00 0.00 68 1018.6
20260506195056 21 190 9.7 11.3 0.00 0.00 0.00 68 1018.6
20260506194554 21 266 11.3 14.5 0.00 0.00 0.00 70 1018.3
20260506194049 21 267 17.7 22.5 0.00 0.00 0.00 70 1018.3
20260506193547 21 252 8.0 11.3 0.00 0.00 0.00 69 1018.6
20260506193044 21 235 3.2 12.9 0.00 0.00 0.00 69 1018.3
20260506192541 20 211 11.3 12.9 0.00 0.00 0.00 69 1018.6
20260506192037 20 229 12.9 17.7 0.00 0.00 0.00 72 1018.6
20260506191534 20 279 8.0 9.7 0.00 0.00 0.00 71 1019.0
20260506191029 20 259 11.3 16.1 0.00 0.00 0.00 71 1019.0
20260506190527 21 257 9.7 12.9 0.00 0.00 0.00 70 1019.0
20260506190024 21 185 6.4 8.0 0.00 0.00 0.00 68 1018.6
20260506185521 20 237 8.0 11.3 0.00 0.00 0.00 68 1019.0
20260506185017 20 244 0.0 0.0 0.00 0.00 0.00 70 1019.0
20260506184515 20 198 8.0 11.3 0.00 0.00 0.00 69 1019.0
20260506184012 21 161 4.8 4.8 0.00 0.00 0.00 68 1019.0
20260506183507 20 263 6.4 9.7 0.00 0.00 0.00 71 1019.0
20260506183005 20 289 8.0 11.3 0.00 0.00 0.00 72 1019.3
20260506182501 20 164 6.4 8.0 0.00 0.00 0.00 70 1019.0
20260506181959 20 159 0.0 0.0 0.00 0.00 0.00 72 1019.0
20260506181457 20 272 0.0 0.0 0.00 0.00 0.00 71 1019.3
20260506180948 20 240 9.7 11.3 0.00 0.00 0.00 71 1019.3
20260506180444 20 181 0.0 0.0 0.00 0.00 0.00 72 1019.3
20260506175941 20 77 0.0 0.0 0.00 0.00 0.00 68 1019.3
20260506175438 20 218 0.0 0.0 0.00 0.00 0.00 71 1019.3
20260506174934 20 219 0.0 0.0 0.00 0.00 0.00 68 1019.3
20260506174432 21 181 0.0 0.0 0.00 0.00 0.00 66 1019.3
20260506173929 21 172 0.0 0.0 0.00 0.00 0.00 64 1019.3
20260506173426 20 48 0.0 0.0 0.00 0.00 0.00 67 1019.3
20260506172923 20 25 0.0 0.0 0.00 0.00 0.00 68 1019.3
20260506172420 19 264 0.0 0.0 0.00 0.00 0.00 70 1019.0
20260506171917 18 153 0.0 0.0 0.00 0.00 0.00 71 1019.3
20260506171414 19 111 0.0 0.0 0.00 0.00 0.00 72 1019.3
20260506170912 20 65 0.0 0.0 0.00 0.00 0.00 69 1019.3
20260506170408 20 102 0.0 0.0 0.00 0.00 0.00 69 1019.3
20260506165907 19 115 0.0 0.0 0.00 0.00 0.00 72 1019.0
20260506165405 19 116 0.0 0.0 0.00 0.00 0.00 71 1019.3
20260506164901 19 118 0.0 0.0 0.00 0.00 0.00 71 1019.3
20260506164357 19 146 0.0 0.0 0.00 0.00 0.00 72 1019.3
20260506163855 18 110 0.0 0.0 0.00 0.00 0.00 75 1019.3
20260506163349 18 108 0.0 0.0 0.00 0.00 0.00 74 1019.3
20260506162845 18 107 0.0 0.0 0.00 0.00 0.00 73 1019.3
20260506162343 18 104 0.0 0.0 0.00 0.00 0.00 73 1019.3
20260506161840 18 103 0.0 0.0 0.00 0.00 0.00 72 1019.0
20260506161338 17 105 0.0 0.0 0.00 0.00 0.00 74 1019.0
20260506160835 17 101 0.0 0.0 0.00 0.00 0.00 78 1019.0
20260506160332 17 110 0.0 0.0 0.00 0.00 0.00 79 1019.0
20260506155830 17 111 0.0 0.0 0.00 0.00 0.00 80 1019.3
20260506155326 18 116 0.0 0.0 0.00 0.00 0.00 80 1019.0
20260506153439 17 132 0.0 0.0 0.00 0.00 0.00 81 1019.3
20260506152936 17 115 0.0 0.0 0.00 0.00 0.00 83 1019.3
20260506152433 16 118 0.0 0.0 0.00 0.00 0.00 85 1019.3
20260506151932 16 114 0.0 0.0 0.00 0.00 0.00 84 1019.3
20260506151428 17 116 0.0 0.0 0.00 0.00 0.00 84 1019.3
20260506150926 17 120 0.0 0.0 0.00 0.00 0.00 83 1019.3
20260506150422 17 122 0.0 0.0 0.00 0.00 0.00 85 1019.3
20260506145919 16 124 0.0 0.0 0.00 0.00 0.00 84 1019.3
20260506145415 16 125 0.0 0.0 0.00 0.00 0.00 84 1019.3
20260506144913 16 123 0.0 0.0 0.00 0.00 0.00 84 1019.3
20260506144409 16 122 0.0 0.0 0.00 0.00 0.00 86 1019.3
20260506143908 16 121 0.0 0.0 0.00 0.00 0.00 85 1019.3
20260506143404 16 121 0.0 0.0 0.00 0.00 0.00 86 1019.3
20260506142902 15 122 0.0 0.0 0.00 0.00 0.00 86 1019.3
20260506142400 16 117 0.0 0.0 0.00 0.00 0.00 85 1019.0
20260506141858 15 129 0.0 0.0 0.00 0.00 0.00 89 1019.3
20260506141356 14 130 0.0 0.0 0.00 0.00 0.00 90 1019.0
20260506140854 13 129 0.0 0.0 0.00 0.00 0.00 91 1019.0
20260506140350 13 129 0.0 0.0 0.00 0.00 0.00 92 1019.0
20260506135848 13 128 0.0 0.0 0.00 0.00 0.00 93 1019.3
20260506135344 13 128 0.0 0.0 0.00 0.00 0.00 94 1019.0
20260506134840 12 129 0.0 0.0 0.00 0.00 0.00 95 1019.0
20260506134337 12 132 0.0 0.0 0.00 0.00 0.00 97 1019.0
20260506133834 12 132 0.0 0.0 0.00 0.00 0.00 97 1019.0
20260506133331 12 132 0.0 0.0 0.00 0.00 0.00 97 1019.0
20260506132827 11 132 0.0 0.0 0.00 0.00 0.00 97 1019.0
20260506132325 11 132 0.0 0.0 0.00 0.00 0.00 97 1018.6
20260506131823 11 132 0.0 0.0 0.00 0.00 0.00 97 1018.6
20260506131319 11 132 0.0 0.0 0.00 0.00 0.00 96 1018.3
20260506130816 11 132 0.0 0.0 0.00 0.00 0.00 96 1018.6
20260506130312 11 132 0.0 0.0 0.00 0.00 0.00 96 1018.3
20260506125810 11 132 0.0 0.0 0.00 0.00 0.00 97 1018.3
20260506125308 11 132 0.0 0.0 0.00 0.00 0.00 97 1018.3
20260506124807 11 132 0.0 0.0 0.00 0.00 0.00 96 1018.3
20260506124303 11 132 0.0 0.0 0.00 0.00 0.00 96 1018.3
20260506123801 11 132 0.0 0.0 0.00 0.00 0.00 96 1018.3
20260506123259 11 132 0.0 0.0 0.00 0.00 0.00 96 1018.3
20260506122756 12 132 0.0 0.0 0.00 0.00 0.00 96 1017.9
20260506122253 11 132 0.0 0.0 0.00 0.00 0.00 95 1017.9
20260506121751 12 132 0.0 0.0 0.00 0.00 0.00 96 1017.9
20260506121248 11 132 0.0 0.0 0.00 0.00 0.00 96 1018.3
20260506120745 11 132 0.0 0.0 0.00 0.00 0.00 96 1018.3
20260506120243 11 133 0.0 0.0 0.00 0.00 0.00 96 1017.9
20260506115740 11 135 0.0 0.0 0.00 0.00 0.00 96 1017.9
20260506115238 11 135 0.0 0.0 0.00 0.00 0.00 96 1017.9
20260506114736 11 135 0.0 0.0 0.00 0.00 0.00 96 1018.3
20260506114233 11 135 0.0 0.0 0.00 0.00 0.00 96 1017.9
20260506113731 11 135 0.0 0.0 0.00 0.00 0.00 96 1018.3
20260506113229 11 135 0.0 0.0 0.00 0.00 0.00 96 1017.9
20260506112725 11 135 0.0 0.0 0.00 0.00 0.00 95 1017.9
20260506112223 11 135 0.0 0.0 0.00 0.00 0.00 95 1017.9
20260506111720 11 135 0.0 0.0 0.00 0.00 0.00 95 1018.3
20260506111218 11 135 0.0 0.0 0.00 0.00 0.00 95 1017.9
20260506110714 11 135 0.0 0.0 0.00 0.00 0.00 95 1017.6
20260506110212 12 135 0.0 0.0 0.00 0.00 0.00 95 1017.9
20260506105708 12 135 0.0 0.0 0.00 0.00 0.00 95 1017.9
20260506105205 12 135 0.0 0.0 0.00 0.00 0.00 95 1017.9
20260506104704 12 135 0.0 0.0 0.00 0.00 0.00 94 1017.9
20260506104201 12 135 0.0 0.0 0.00 0.00 0.00 95 1017.9
20260506103658 12 135 0.0 0.0 0.00 0.00 0.00 95 1017.9
20260506103155 12 135 0.0 0.0 0.00 0.00 0.00 95 1017.9
20260506102652 12 135 0.0 0.0 0.00 0.00 0.00 95 1017.9
20260506102144 12 135 0.0 0.0 0.00 0.00 0.00 95 1017.9
20260506101641 12 135 0.0 0.0 0.00 0.00 0.00 95 1017.9
20260506101138 12 135 0.0 0.0 0.00 0.00 0.00 95 1017.9
20260506100636 12 135 0.0 0.0 0.00 0.00 0.00 95 1017.9
20260506100134 12 135 0.0 0.0 0.00 0.00 0.00 95 1017.9
20260506095632 12 135 0.0 0.0 0.00 0.00 0.00 95 1017.9
20260506095129 12 135 0.0 0.0 0.00 0.00 0.00 94 1017.9
20260506094626 12 135 0.0 0.0 0.00 0.00 0.00 93 1017.9
20260506094124 12 135 0.0 0.0 0.00 0.00 0.00 94 1017.9
20260506093622 13 135 0.0 0.0 0.00 0.00 0.00 93 1017.9
20260506093119 13 135 0.0 0.0 0.00 0.00 0.00 93 1017.9
20260506092617 13 135 0.0 0.0 0.00 0.00 0.00 93 1017.9
20260506092114 13 135 0.0 0.0 0.00 0.00 0.00 93 1018.3
20260506091612 13 135 0.0 0.0 0.00 0.00 0.00 92 1018.3
20260506091109 13 136 0.0 0.0 0.00 0.00 0.00 92 1018.3
20260506090607 13 136 0.0 0.0 0.00 0.00 0.00 92 1018.3
20260506085600 13 135 0.0 0.0 0.00 0.00 0.00 92 1018.3
20260506085056 13 135 0.0 0.0 0.00 0.00 0.00 92 1018.3
20260506084553 13 136 0.0 0.0 0.00 0.00 0.00 91 1018.3